Flag for Portugal Weather past 2 weeks in Setúbal, Portugal

61 °F

Drizzle. Fog.

Feels Like: 61 °F
Forecast: 65 / 71 °F
Wind: 6 mph from Southeast

Location: Lisbon Portela Airport

Current Time: Oct 10, 2015 at 10:43:10 AM

Latest Report: Oct 10, 2015 at 10:00 AM

Visibility: 2 mi

Pressure: 29.74 "Hg

Humidity: 100%

Dew point: 61 °F

Location of SetúbalLocation

Historic Weather in Setúbal — Graph


Setúbal temperature yesterday

Maximum temperature yesterday: 68 °F (at 1:00 PM)
Minimum temperature yesterday: 54 °F (at 7:30 AM)
Average temperature yesterday: 62 °F

Past Weeks' High & Low Weather Summary

High88 °F (Sep 27, 4:00 PM)100% (Oct 5, 6:00 PM)30.21 "Hg (Oct 5, 6:00 PM)
Low54 °F (Oct 9, 7:30 AM)26% (Sep 28, 3:30 PM)29.71 "Hg (Oct 10, 8:30 AM)
Average67 °F72%30.01 "Hg
* Reported Sep 25 9:00 AM — Oct 10 9:30 AM, Setúbal, Weather by CustomWeather, © 2015

Note: Actual official high and low records may vary slightly from our data, if they occured in-between our weather recording intervals... More about our weather records


Setúbal weather history for previous 24 hours

Time TempWeatherWind HumidityBarometerVisibility
9:30 AM
Sat, Oct 10
61 °FDrizzle. Fog.6 mph100%29.74 "Hg3 mi
9:00 AM61 °FDrizzle. Broken clouds.6 mph94%29.74 "Hg4 mi
8:30 AM61 °FDrizzle. Fog.9 mph94%29.71 "Hg2 mi
8:00 AM61 °FFog.8 mph94%29.74 "Hg2 mi
7:30 AM61 °FDrizzle. Fog.9 mph94%29.74 "Hg2 mi
7:00 AM61 °FPassing clouds.10 mph94%29.74 "Hg3 mi
6:30 AM61 °FPassing clouds.9 mph94%29.74 "Hg3 mi
6:00 AM61 °FPassing clouds.12 mph94%29.74 "Hg3 mi
5:30 AM61 °FPassing clouds.12 mph94%29.74 "Hg6 mi
5:00 AM61 °FPassing clouds.14 mph94%29.74 "Hg4 mi
4:30 AM63 °FPassing clouds.13 mph88%29.77 "Hg4 mi
4:00 AM63 °FPartly cloudy.12 mph88%29.77 "Hg5 mi
3:30 AM63 °FPassing clouds.12 mph88%29.77 "Hg4 mi
3:00 AM63 °FPassing clouds.12 mph88%29.77 "HgN/A
2:30 AM63 °FPassing clouds.10 mph88%29.80 "HgN/A
2:00 AM63 °FPassing clouds.10 mph88%29.80 "HgN/A
1:30 AM63 °FPassing clouds.13 mph88%29.80 "HgN/A
1:00 AM63 °FLight rain. Passing clouds.8 mph88%29.80 "HgN/A
12:30 AM63 °FPassing clouds.6 mph83%29.83 "HgN/A
12:00 AM63 °FPassing clouds.8 mph88%29.83 "HgN/A
11:30 PM
Fri, Oct 9
63 °FClear.8 mph83%29.83 "Hg10 mi
11:00 PM63 °FClear.9 mph83%29.83 "Hg10 mi
10:00 PM63 °FClear.9 mph88%29.83 "Hg10 mi
9:30 PM63 °FClear.8 mph88%29.83 "Hg10 mi
9:00 PM63 °FClear.12 mph83%29.83 "Hg10 mi
8:30 PM63 °FClear.10 mph83%29.83 "Hg10 mi
8:00 PM63 °FSunny.10 mph83%29.83 "Hg10 mi
7:30 PM63 °FSunny.8 mph83%29.83 "Hg10 mi
7:00 PM64 °FSunny.7 mph73%29.83 "Hg10 mi
6:30 PM64 °FSunny.10 mph73%29.83 "Hg10 mi
6:00 PM66 °FPassing clouds.10 mph64%29.83 "HgN/A
5:30 PM66 °FSunny.9 mph64%29.83 "Hg10 mi
5:00 PM66 °FSunny.12 mph68%29.83 "Hg10 mi
4:30 PM66 °FSunny.8 mph68%29.83 "Hg10 mi
3:30 PM68 °FPassing clouds.13 mph69%29.86 "HgN/A
3:00 PM68 °FSunny.12 mph64%29.86 "Hg10 mi
2:30 PM68 °FPassing clouds.9 mph64%29.86 "HgN/A
2:00 PM68 °FPassing clouds.10 mph69%29.89 "HgN/A
1:30 PM68 °FPassing clouds.6 mph69%29.89 "HgN/A
1:00 PM68 °FPassing clouds.5 mph60%29.89 "HgN/A
12:30 PM66 °FPassing clouds.6 mph64%29.92 "HgN/A
12:00 PM66 °FPassing clouds.5 mph68%29.92 "HgN/A
11:30 AM63 °FPassing clouds.5 mph83%29.92 "HgN/A
11:00 AM63 °FPassing clouds.5 mph83%29.92 "HgN/A
10:30 AM61 °FPassing clouds.6 mph88%29.92 "HgN/A
10:00 AM59 °FFog.6 mph88%29.92 "Hg6 mi
Weather by CustomWeather, © 2015

See weather overviewHow to use our weather pages